Weather History for Douglas, WY

Change the Weather History Date:

Tuesday, September 24, 2013

  Actual Average Record
Temperature  
Mean Temperature 56 °F 54 °F  
Max Temperature 78 °F 71 °F 88 °F (1992)
Min Temperature 34 °F 38 °F 21 °F (2000)
Degree Days  
Heating Degree Days 9 11  
Month to date heating degree days 69 154  
Since 1 July heating degree days 69 195  
Cooling Degree Days 0 0  
Month to date cooling degree days 88 27  
Year to date cooling degree days 739 485  
Growing Degree Days 6 (Base 50)    
Moisture  
Dew Point 35 °F    
Average Humidity 55    
Maximum Humidity 92    
Minimum Humidity 18    
Precipitation  
Precipitation 0.00 in 0.04 in 0.23 in (2005)
Month to date precipitation 0.14 0.99  
Year to date precipitation 6.36 11.04  
Sea Level Pressure  
Sea Level Pressure 29.89 in    
Wind  
Wind Speed 8 mph (SSE)    
Max Wind Speed 20 mph    
Max Gust Speed 30 mph    
Visibility 10 miles    
Events      
T = Trace of Precipitation, MM = Missing Value Source: NWS Daily Summary

Daily Weather History Graph

Daily Weather History Graph

Search for Another Location

Airport:

Trip Planner

Search our weather history database for the weather conditions in past years. The results will help you decide how hot, cold, wet, or windy it might be!

Date:

Astronomy

Sep. 24, 2013 Rise Set
Actual Time 6:51 AM MDT 6:54 PM MDT
Civil Twilight 6:23 AM MDT 7:22 PM MDT
Nautical Twilight 5:50 AM MDT 7:55 PM MDT
Astronomical Twilight 5:16 AM MDT 8:29 PM MDT
Moon 10:07 PM MDT (9/24) 12:15 PM MDT (9/24)
Length of Visible Light 12h 59m
Length of Day
12h 03m
Waning Gibbous, 72% of the Moon is Illuminated
Sep 24
Waning Gibbous
Sep 26
Last Quarter
Oct 4
New
Oct 11
First Quarter
Oct 18
Full

Hourly Weather History & Observations

Time (MDT) Temp. Windchill Dew Point Humidity Pressure Visibility Wind Dir Wind Speed Gust Speed Precip Events Conditions
12:53 AM 42.1 °F - 37.9 °F 85% 29.97 in 10.0 mi Calm Calm - N/A   Clear
1:53 AM 37.9 °F - 35.1 °F 89% 29.99 in 10.0 mi Calm Calm - N/A   Clear
2:53 AM 39.9 °F - 37.0 °F 89% 29.98 in 10.0 mi Calm Calm - N/A   Clear
3:53 AM 39.0 °F - 36.0 °F 89% 29.99 in 10.0 mi Calm Calm - N/A   Clear
4:53 AM 35.1 °F - 33.1 °F 92% 30.00 in 10.0 mi Calm Calm - N/A   Clear
5:53 AM 36.0 °F - 34.0 °F 93% 30.01 in 10.0 mi Calm Calm - N/A   Clear
6:53 AM 36.0 °F 33.3 °F 33.1 °F 89% 30.04 in 10.0 mi SE 3.5 mph - N/A   Clear
7:53 AM 39.9 °F 36.7 °F 37.9 °F 93% 30.05 in 10.0 mi SSE 4.6 mph - N/A   Clear
8:53 AM 46.9 °F - 39.9 °F 77% 30.04 in 10.0 mi SE 4.6 mph - N/A   Clear
9:53 AM 60.1 °F - 41.0 °F 49% 30.01 in 10.0 mi Calm Calm - N/A   Clear
10:53 AM 66.9 °F - 30.9 °F 26% 29.97 in 10.0 mi West 13.8 mph - N/A   Clear
11:53 AM 71.1 °F - 32.0 °F 24% 29.94 in 10.0 mi SW 13.8 mph 18.4 mph N/A   Clear
12:53 PM 71.1 °F - 32.0 °F 24% 29.91 in 10.0 mi South 6.9 mph 16.1 mph N/A   Clear
1:53 PM 73.9 °F - 33.1 °F 22% 29.88 in 10.0 mi SSE 10.4 mph 16.1 mph N/A   Clear
2:53 PM 75.9 °F - 30.9 °F 19% 29.83 in 10.0 mi SSE 11.5 mph 18.4 mph N/A   Clear
3:53 PM 77.0 °F - 30.0 °F 18% 29.79 in 10.0 mi SSE 11.5 mph - N/A   Clear
4:53 PM 77.0 °F - 30.0 °F 18% 29.77 in 10.0 mi SSE 15.0 mph - N/A   Clear
5:53 PM 73.9 °F - 32.0 °F 21% 29.76 in 10.0 mi SE 17.3 mph 23.0 mph N/A   Clear
6:53 PM 66.9 °F - 39.0 °F 36% 29.76 in 10.0 mi SSE 11.5 mph - N/A   Clear
7:53 PM 64.9 °F - 37.9 °F 37% 29.76 in 10.0 mi SSE 12.7 mph - N/A   Clear
8:53 PM 61.0 °F - 39.9 °F 46% 29.75 in 10.0 mi SSE 6.9 mph - N/A   Clear
9:53 PM 57.0 °F - 39.9 °F 53% 29.72 in 10.0 mi ESE 5.8 mph - N/A   Clear
10:53 PM 57.0 °F - 39.9 °F 53% 29.70 in 10.0 mi ESE 10.4 mph - N/A   Clear
11:53 PM 55.0 °F - 39.0 °F 55% 29.68 in 10.0 mi ESE 11.5 mph - N/A   Clear